Flag for Germany Weather past 2 weeks in Wittenberge, Mecklenburg-Western Pomerania, Germany

Now
42 °F

Drizzle. Low clouds.


Feels Like: 38 °F
Forecast: 43 / 51 °F
Wind: 7 mph from Southwest

Location: Marnitz

Current Time: Dec 21, 2014 at 9:19:55 PM

Latest Report: Dec 21, 2014 at 9:00 PM


Visibility: 2 mi

Pressure: 29.96 "Hg

Humidity: 96%

Dew point: 41 °F

Location of WittenbergeLocation

Historic Weather in Wittenberge — Graph

°F

Wittenberge temperature yesterday

Maximum temperature yesterday: 43 °F (at 10:00 AM)
Minimum temperature yesterday: 33 °F (at 12:00 PM)
Average temperature yesterday: 39 °F

Past Weeks' High & Low Weather Summary

 TemperatureHumidityPressure
High53 °F (Dec 19, 12:00 AM)100% (Dec 6, 8:00 PM)30.33 "Hg (Dec 6, 8:00 PM)
Low30 °F (Dec 15, 3:00 AM)76% (Dec 15, 11:00 AM)29.23 "Hg (Dec 12, 5:00 PM)
Average39 °F91%29.83 "Hg
* Reported Dec 6 8:00 PM — Dec 21 8:00 PM, Wittenberge, Weather by CustomWeather, © 2014

Note: Actual official high and low records may vary slightly from our data, if they occured in-between our weather recording intervals... More about our weather records

Advertising

Wittenberge weather history for previous 24 hours

 ConditionsComfort  
Time TempWeatherWind HumidityBarometerVisibility
8:00 PM
Dec 21
43 °FDrizzle. Overcast.7 mph90%29.98 "Hg5 mi
7:00 PM42 °FLight rain. Overcast.7 mph89%30.01 "Hg7 mi
6:00 PM43 °FLight rain. Overcast.5 mph87%30.04 "Hg7 mi
5:00 PM42 °FOvercast.5 mph88%30.06 "Hg8 mi
4:00 PM42 °FOvercast.6 mph89%30.09 "Hg7 mi
3:00 PM42 °FOvercast.6 mph88%30.12 "Hg10 mi
2:00 PM42 °FOvercast.6 mph87%30.13 "Hg11 mi
1:00 PM42 °FOvercast.6 mph88%30.16 "Hg11 mi
12:00 PM41 °FOvercast.6 mph89%30.17 "Hg11 mi
11:00 AM40 °FOvercast.6 mph91%30.18 "Hg9 mi
10:00 AM39 °FPartly sunny.7 mph92%30.18 "Hg11 mi
9:00 AM38 °FOvercast.6 mph93%30.17 "Hg12 mi
8:00 AM39 °FPassing clouds.6 mph92%30.16 "Hg13 mi
7:00 AM38 °FPassing clouds.6 mph92%30.13 "Hg14 mi
6:00 AM39 °FPassing clouds.6 mph90%30.11 "Hg16 mi
5:00 AM41 °FOvercast.8 mph85%30.10 "Hg18 mi
4:00 AM40 °FOvercast.7 mph88%30.07 "Hg19 mi
3:00 AM39 °FOvercast.6 mph90%30.03 "Hg17 mi
2:00 AM39 °FPassing clouds.7 mph89%29.99 "Hg19 mi
1:00 AM38 °FPassing clouds.6 mph90%29.96 "Hg28 mi
12:00 AM38 °FOvercast.9 mph87%29.94 "Hg43 mi
11:00 PM
Dec 20
39 °FOvercast.7 mph84%29.90 "Hg17 mi
10:00 PM38 °FPassing clouds.7 mph85%29.88 "Hg22 mi
9:00 PM38 °FPassing clouds.9 mph85%29.84 "Hg28 mi
Weather by CustomWeather, © 2014

See weather overviewHow to use our weather pages